星链-4452 (STARLINK-4452 )

导读

STARLINK-4452是美国SpaceX星链星座的一颗卫星,于2022年8月31日发射升空,属于星链低轨互联网星座组网卫星。星链项目旨在构建覆盖全球的卫星互联网,该卫星承担着为全球偏远、基础设施薄弱地区提供高速网络接入服务的任务,运行于近地轨道,助力星链星座完成全球网络覆盖布局。

Basic Information
目录编号:
53658
目录名称:
STARLINK-4452
国际标识:
2022-105L
轨道中心:
EARTH
卫星名称:
星链-4452
卫星全名:
星链-4452 (STARLINK-4452 )
卫星状态:
在轨 (已飞行1465 天)
发射日期:
2022-08-31 UTC
国别 :
美国 (US)
星等 :
--
Orbit Information
数据来源 国际轨道数据
星历时间: 2026-09-04T10:57:57+0800
11小时前
查看轨道信息
半长轴: 6843.704km
偏心率: 0.0001638
轨道倾角: 97.285°
近地点辐角 88.472°
升交点赤经 124.034°
平近点角 271.671°
近地点: 464.446km
远地点: 466.688km
周期: 93.907分钟
每日圈数: 15.334371
Detailed Information
固有亮度:
5
最大亮度:
2.5
卫星平台:
Starlink v1.5
覆盖范围:
全球
运营商:
太空探索技术公司
运营商所在国:
美国
制造商(研发单位):
太空探索技术公司
制造商所在国:
美国
使用方式:
暂无
Satellite Introduction
星链(Starlink)计划是由太空探索技术公司(SpaceX)提出的一个巨型低轨卫星互联网星座项目,计划在2019年至2024年间在太空搭建由约1.2万颗卫星组成的“星链”网络,其中1584颗将部署在地球上空550千米处的近地轨道,并从2020年开始工作。该卫星仍在工作。
2D Orbit Map
3D Orbit Map
Orbit Altitude Analysis Chart
Orbit Inclination Analysis Chart
Orbit Comprehensive Analysis Chart
View Comprehensive Chart
Conjunction Data List
Event ID Objects TCA Miss Dist (km) Collision Risk Probability Collision Risk Index (CRI) Action
CDM_260906-093505-365806-238122
HAWK-11C (62381)
2026-09-06T
09:35:23+0000
2.048 km
极远距离
2.164255E-6 低风险 0.42
CDM_260905-100505-365806-237921
HAWK-11B (62379)
2026-09-05T
10:05:37+0000
2.180 km
极远距离
1.922153E-6 低风险 0.41
CDM_260905-075105-365806-436421
2026-09-05T
07:51:40+0000
2.848 km
极远距离
1.450573E-6 低风险 0.38
CDM_260905-051305-365805-696022
2026-09-05T
05:13:58+0000
2.582 km
极远距离
1.39264E-6 低风险 0.38
CDM_260906-104404-831605-365821
2026-09-06T
10:44:00+0000
2.872 km
极远距离
1.385392E-6 低风险 0.38
CDM_260907-002505-365805-392021
2026-09-07T
00:25:41+0000
2.995 km
极远距离
1.118351E-6 低风险 0.36
CDM_260905-051303-622505-365822
2026-09-05T
05:13:32+0000
2.692 km
极远距离
1.097938E-6 低风险 0.36
CDM_260904-162204-773005-365821
2026-09-04T
16:22:23+0000
2.887 km
极远距离
8.613409E-7 极低风险 0.34